Total_Precipitation_Accumulation
1.33 1.39 1.50 1.71 1.88 1.88 1.80 1.65 1.49 1.47 1.46 1.44 1.47 1.51 1.51 1.46 1.45 1.54 1.51 1.42 1.42 1.43 1.46 1.50 1.52 1.54 1.56 1.49 1.49 1.50 1.47 1.55 1.58 1.03 0.86 0.90 1.09 1.18 1.19 1.15 1.20 1.25 1.26
1.28 1.33 1.41 1.50 1.65 1.84 1.76 1.62 1.46 1.41 1.42 1.42 1.40 1.43 1.45 1.47 1.48 1.52 1.50 1.43 1.40 1.39 1.40 1.39 1.38 1.42 1.49 1.44 1.41 1.38 1.33 1.28 1.36 1.20 0.95 0.94 1.03 1.10 1.20 1.27 1.27 1.27 1.21
1.26 1.31 1.30 1.36 1.46 1.56 1.66 1.59 1.47 1.39 1.37 1.39 1.41 1.40 1.44 1.49 1.51 1.46 1.47 1.43 1.37 1.35 1.36 1.37 1.32 1.38 1.44 1.39 1.39 1.33 1.24 1.16 1.18 1.22 1.06 0.96 1.01 1.06 1.24 1.39 1.39 1.39 1.33
1.17 1.22 1.21 1.20 1.25 1.31 1.41 1.57 1.56 1.47 1.37 1.32 1.32 1.36 1.46 1.62 1.69 1.67 1.70 1.56 1.44 1.37 1.32 1.28 1.29 1.40 1.44 1.45 1.50 1.40 1.32 1.34 1.34 1.39 1.27 1.13 1.13 1.14 1.33 1.59 1.69 1.64 1.57
1.05 1.11 1.16 1.18 1.25 1.28 1.25 1.36 1.55 1.51 1.37 1.29 1.28 1.34 1.43 1.80 2.20 2.21 2.11 1.82 1.52 1.36 1.27 1.24 1.30 1.44 1.50 1.68 1.81 1.69 1.66 1.76 1.73 1.71 1.60 1.49 1.40 1.42 1.50 1.55 1.73 1.77 1.76
0.94 1.05 1.13 1.20 1.33 1.34 1.27 1.31 1.45 1.53 1.46 1.35 1.29 1.31 1.36 1.65 2.36 2.53 2.17 1.69 1.48 1.35 1.29 1.23 1.23 1.38 1.41 1.54 1.74 1.84 1.89 2.02 2.10 2.06 1.94 1.79 1.52 1.42 1.45 1.61 1.71 1.92 2.01
0.92 0.99 1.06 1.12 1.27 1.33 1.31 1.39 1.44 1.51 1.57 1.55 1.39 1.29 1.26 1.46 2.15 2.33 2.05 1.61 1.42 1.33 1.27 1.25 1.25 1.30 1.38 1.35 1.48 1.55 1.59 1.75 1.98 2.09 2.14 1.72 1.49 1.42 1.65 1.87 1.83 1.92 1.89
0.98 1.01 1.06 1.07 1.11 1.26 1.36 1.38 1.41 1.45 1.49 1.55 1.49 1.38 1.27 1.35 1.94 2.14 1.94 1.59 1.44 1.34 1.25 1.23 1.23 1.26 1.36 1.57 1.54 1.49 1.39 1.40 1.60 1.80 2.06 1.88 1.68 1.71 2.06 2.39 2.49 2.36 1.95
1.07 1.07 1.05 1.01 1.04 1.16 1.27 1.36 1.40 1.43 1.39 1.40 1.39 1.40 1.35 1.33 1.71 2.01 1.84 1.51 1.46 1.36 1.24 1.22 1.24 1.24 1.51 1.79 1.70 1.55 1.37 1.27 1.38 1.71 2.03 2.16 2.21 2.34 2.58 2.89 3.05 2.88 2.40
1.06 1.11 1.02 0.93 0.91 0.95 1.06 1.24 1.36 1.38 1.32 1.32 1.33 1.34 1.28 1.23 1.53 1.83 1.83 1.50 1.41 1.35 1.27 1.24 1.39 1.48 1.68 1.82 1.66 1.62 1.70 1.46 1.30 1.36 1.47 1.59 1.66 1.82 2.22 2.50 2.82 2.94 2.56
1.03 1.11 1.01 0.92 0.90 0.90 0.97 1.15 1.30 1.38 1.36 1.30 1.25 1.26 1.21 1.21 1.36 1.58 1.82 1.60 1.44 1.37 1.33 1.28 1.27 1.55 1.66 1.73 1.76 1.69 1.93 1.80 1.52 1.52 1.50 1.46 1.43 1.54 1.73 2.03 2.45 2.84 2.89
1.04 1.04 1.03 0.99 0.95 0.96 1.00 1.13 1.28 1.37 1.43 1.37 1.26 1.23 1.21 1.22 1.32 1.48 1.69 1.73 1.60 1.38 1.28 1.15 1.21 1.49 1.58 1.69 1.67 1.76 1.90 1.82 1.60 1.55 1.47 1.40 1.41 1.47 1.54 1.69 2.03 2.33 2.48
1.00 1.04 1.04 1.05 1.03 1.03 1.06 1.16 1.28 1.36 1.41 1.39 1.29 1.22 1.20 1.16 1.32 1.59 1.54 1.59 1.65 1.42 1.27 1.38 1.46 1.58 1.58 1.49 1.55 1.66 1.64 1.56 1.63 1.63 1.47 1.36 1.36 1.48 1.55 1.61 1.76 2.06 2.23
0.89 1.00 1.00 1.03 1.09 1.13 1.15 1.17 1.26 1.36 1.42 1.33 1.26 1.18 1.12 1.15 1.36 1.54 1.49 1.48 1.57 1.54 1.47 1.53 1.62 1.60 1.50 1.39 1.41 1.41 1.35 1.45 1.60 1.59 1.43 1.30 1.28 1.41 1.58 1.68 1.79 1.95 2.18
0.82 0.95 1.03 1.07 1.12 1.18 1.19 1.22 1.28 1.29 1.44 1.42 1.27 1.20 1.21 1.32 1.52 1.67 1.62 1.55 1.56 1.57 1.65 1.72 1.65 1.56 1.52 1.40 1.28 1.21 1.24 1.40 1.52 1.41 1.38 1.36 1.33 1.36 1.45 1.58 1.81 1.97 2.12
0.83 0.90 1.01 1.09 1.11 1.11 1.11 1.17 1.33 1.36 1.39 1.36 1.29 1.26 1.19 1.37 1.53 1.60 1.69 1.72 1.75 1.82 1.85 1.75 1.53 1.37 1.33 1.29 1.27 1.23 1.17 1.20 1.26 1.33 1.37 1.38 1.37 1.40 1.42 1.44 1.62 1.89 2.05
0.83 0.88 0.96 1.05 1.05 1.01 0.99 1.01 1.12 1.29 1.39 1.37 1.34 1.29 1.28 1.37 1.43 1.52 1.66 1.77 1.82 1.82 1.73 1.51 1.31 1.23 1.20 1.18 1.18 1.16 1.13 1.06 1.10 1.21 1.26 1.31 1.37 1.41 1.44 1.45 1.50 1.67 1.86
0.80 0.91 0.95 0.99 1.02 1.01 0.99 0.99 1.00 1.09 1.23 1.31 1.34 1.30 1.28 1.33 1.39 1.49 1.65 1.77 1.83 1.66 1.44 1.36 1.27 1.18 1.16 1.19 1.20 1.19 1.15 1.12 1.15 1.18 1.20 1.21 1.30 1.42 1.46 1.43 1.44 1.58 1.75
0.85 0.90 0.90 0.94 1.00 1.02 1.02 1.04 1.06 1.09 1.13 1.18 1.24 1.37 1.46 1.45 1.48 1.55 1.58 1.53 1.47 1.37 1.28 1.26 1.23 1.21 1.19 1.20 1.23 1.24 1.23 1.21 1.17 1.18 1.18 1.17 1.19 1.32 1.36 1.30 1.33 1.47 1.66
0.88 1.01 0.97 0.96 1.00 1.03 1.04 1.11 1.17 1.20 1.20 1.17 1.18 1.29 1.49 1.66 1.64 1.62 1.49 1.39 1.36 1.25 1.19 1.23 1.23 1.23 1.24 1.25 1.26 1.27 1.26 1.22 1.17 1.17 1.14 1.13 1.15 1.21 1.25 1.25 1.32 1.41 1.48
0.83 0.93 1.02 0.99 0.96 0.99 1.04 1.09 1.15 1.23 1.24 1.16 1.10 1.20 1.49 1.61 1.52 1.37 1.33 1.34 1.40 1.38 1.31 1.29 1.27 1.26 1.25 1.27 1.29 1.27 1.24 1.17 1.10 1.10 1.10 1.10 1.14 1.20 1.18 1.21 1.27 1.34 1.42
0.83 0.88 0.91 0.94 0.96 1.01 1.07 1.09 1.16 1.22 1.21 1.17 1.15 1.22 1.39 1.34 1.32 1.30 1.27 1.27 1.35 1.41 1.41 1.41 1.37 1.30 1.30 1.34 1.37 1.36 1.25 1.11 1.04 1.05 1.08 1.08 1.09 1.12 1.16 1.19 1.19 1.25 1.35
0.91 0.93 0.95 0.94 0.94 1.07 1.13 1.11 1.14 1.18 1.21 1.20 1.20 1.23 1.26 1.25 1.25 1.29 1.33 1.33 1.38 1.40 1.35 1.35 1.35 1.28 1.20 1.21 1.25 1.33 1.33 1.17 1.06 1.09 1.18 1.17 1.12 1.12 1.16 1.19 1.17 1.21 1.28
0.95 0.98 0.99 0.97 0.96 1.01 1.06 1.10 1.12 1.15 1.19 1.22 1.23 1.24 1.26 1.25 1.25 1.28 1.33 1.40 1.43 1.40 1.33 1.32 1.28 1.22 1.16 1.14 1.11 1.11 1.13 1.17 1.21 1.22 1.21 1.24 1.18 1.13 1.16 1.19 1.15 1.17 1.26
0.96 0.97 0.99 0.99 0.99 1.01 1.05 1.09 1.11 1.13 1.17 1.20 1.22 1.25 1.26 1.27 1.28 1.28 1.29 1.32 1.34 1.31 1.25 1.23 1.23 1.22 1.17 1.11 1.07 1.04 1.14 1.24 1.30 1.40 1.42 1.35 1.23 1.15 1.18 1.17 1.14 1.15 1.22
0.91 0.92 0.96 1.00 1.03 1.04 1.09 1.15 1.14 1.13 1.19 1.19 1.20 1.24 1.26 1.28 1.28 1.23 1.20 1.21 1.23 1.20 1.15 1.14 1.12 1.15 1.14 1.13 1.11 1.18 1.25 1.22 1.24 1.33 1.45 1.45 1.28 1.12 1.14 1.17 1.12 1.15 1.19